Regional Weather Roundup
Issued by NWS

Home | Current Version | Previous Version | Text Only | Print | Product List | Glossary On
Versions: 1 2 3 4 5 6 7 8 9 10 11 12 13 14 15 16 17 18 19 20 21 22 23 24 25 26 27 28 29 30 31 32 33 34 35 36 37 38 39 40 41 42 43 44 45 46 47 48 49 50
000
ASUS43 KMPX 230101
RWRMN
WEATHER ROUNDUP FOR MINNESOTA
NATIONAL WEATHER SERVICE TWIN CITIES/CHANHASSEN MN
800 PM CDT FRI MAY 22 2015


NOTE: "FAIR" INDICATES FEW OR NO CLOUDS BELOW 12,000 FEET WITH NO
SIGNIFICANT WEATHER AND/OR OBSTRUCTIONS TO VISIBILITY. N/A MEANS
CURRENT SKY AND/OR WEATHER CONDITIONS ARE NOT AVAILABLE.

MNZ060>063-068>070-230200-
   Twin Cities Metro

CITY           SKY/WX    TMP DP  RH WIND       PRES   REMARKS
TWIN CITIES    MOCLDY    73  32  22 VRB5      30.18S
ST PAUL        MOCLDY    68  39  34 SE5       30.18S
CRYSTAL        PTCLDY    71  34  25 CALM      30.17S
BLAINE         PTCLDY    72  36  26 CALM      30.18S
LAKEVILLE      MOCLDY    66  39  37 CALM      30.18S
EDEN PRAIRIE   MOCLDY    68  38  33 CALM      30.17S
SOUTH ST PAUL  MOCLDY    70  35  27 S3        30.18R
LAKE ELMO      FAIR      70  36  28 E3        30.19F
$$
MNZ001>005-007-008-013>017-022>024-027-028-230200-
   Northwest Minnesota

CITY           SKY/WX    TMP DP  RH WIND       PRES   REMARKS
BEMIDJI        CLEAR     71  37  28 W3        30.13S
HALLOCK        PTCLDY    73  41  31 SW9       30.08S
ROSEAU         CLEAR     72  43  35 SW8       30.09S
WARROAD        CLEAR     72  45  37 SW8       30.09S
THIEF RVR FALL CLEAR     73  36  25 SW8       30.12F
CROOKSTON      CLEAR     73  39  29 SW7       30.12S
FOSSTON        CLEAR     72  36  26 CALM      30.14S
DETROIT LAKES  CLEAR     68  37  32 S6        30.16F
MOORHEAD       CLEAR     73  37  27 SE5       30.13S
PARK RAPIDS    CLEAR     70  38  31 SW7       30.14S
MAHNOMEN       FAIR      72  37  27 S10       30.13S
$$
MNZ006-009>011-018-025>026-230200-
   North Central Minnesota

CITY           SKY/WX    TMP DP  RH WIND       PRES   REMARKS
BAUDETTE       CLEAR     72  38  29 W9        30.09S
INTL FALLS     PTCLDY    71  37  28 SW6       30.09F
WASKISH        CLEAR     66  45  45 CALM      30.11F
BIG FORK       CLEAR     72  34  25 CALM      30.13S
LONGVILLE      CLEAR     70  37  30 S3        30.15S
GRAND RAPIDS   CLEAR     68  36  30 S3        30.15S
CRANE LAKE     CLEAR     66  39  37 CALM      30.11F
COOK           CLEAR     70  36  28 SW5       30.13S
WALKER         FAIR      70  38  31 CALM      30.14S
$$
MNZ012-019>021-037-230200-
   Northeast Minnesota

CITY           SKY/WX    TMP DP  RH WIND       PRES   REMARKS
DULUTH         CLEAR     67  36  31 S6        30.15F
ELY            CLEAR     70  30  23 W5        30.12F
HIBBING        CLEAR     70  32  24 SW6       30.14S
EVELETH        CLEAR     68  32  26 SW6       30.15S
DULUTH HARBOR  CLEAR     45  37  76 NE5       30.18S
TWO HARBORS    CLEAR     57  39  51 CALM      30.14S
SILVER BAY     CLEAR     55  30  38 CALM      30.14S
GRAND MARAIS     N/A     43  28  55 E5        30.17F
G MARAIS ARPRT CLEAR     52  25  35 S3        30.18S
$$
MNZ029>031-032-039>041-046>048-054>057-064-230200-
   West Central Minnesota

CITY           SKY/WX    TMP DP  RH WIND       PRES   REMARKS
FERGUS FALLS   CLEAR     72  36  26 SE6       30.14S
WHEATON        PTCLDY    68  37  32 E5        30.14F
MORRIS         PTCLDY    70  36  28 SE5       30.13F
ALEXANDRIA     CLEAR     68  34  28 S7        30.17S
ELBOW LAKE     FAIR      69  34  28 SE7       30.14F
WADENA         CLEAR     68  39  34 S6        30.16S
GLENWOOD       PTCLDY    70  36  28 SE2       30.17S
APPLETON       MOCLDY    72  34  25 E7        30.13S
BENSON         MOCLDY    73  28  19 CALM      30.14F
ORTONVILLE     MOCLDY    72  34  25 E7        30.12F
MADISON        MOCLDY    72  30  21 SE5       30.12F
WILLMAR        FAIR      72  39  30 SE6       30.16S
$$
MNZ033>034-036-042>043-049>051-058-059-230200-
   Central Minnesota

CITY           SKY/WX    TMP DP  RH WIND       PRES   REMARKS
ST CLOUD       CLEAR     68  40  35 CALM      30.17S
SAUK CENTRE    FAIR      69  37  31 E3        30.17S
PAYNESVILLE    PTCLDY    67  36  32 E7        30.17F
AITKIN         CLEAR     68  32  26 S6        30.15S
PINE RIVER     CLEAR     70  43  37 S5        30.18S
BRAINERD       CLEAR     68  38  33 S6        30.16S
STAPLES        CLEAR     66  36  32 S6        30.16S
LONG PRAIRIE   FAIR      68  32  26 E6        30.17F
LITTLE FALLS   CLEAR     70  32  24 CALM      30.17F
LITCHFIELD     MOCLDY    68  39  34 E6        30.18S
BUFFALO        PTCLDY    70  33  25 CALM      30.19S
MAPLE LAKE     PTCLDY    69  41  35 CALM      30.19S
$$
MNZ037-044-045-052-053-230200-
   East Central Minnesota

CITY           SKY/WX    TMP DP  RH WIND       PRES   REMARKS
PRINCETON      CLEAR     70  39  32 CALM      30.18S
MORA           CLEAR     66  36  32 CALM      30.19S
CAMBRIDGE      CLEAR     72  46  40 CALM      30.16S
RUSH CITY      CLEAR     66  43  43 CALM      30.18S
MOOSE LAKE     CLEAR     68  37  32 SW3       30.15S
HINCKLEY       FAIR      68  43  40 S3        30.17S
CLOQUET        CLEAR     70  27  19 CALM      30.16S
MCGREGOR       CLEAR     68  37  32 S6        30.16S
$$
MNZ071>073-080-081-089-090-097-098-230200-
   Southwest Minnesota

CITY           SKY/WX    TMP DP  RH WIND       PRES   REMARKS
MONTEVIDEO     MOCLDY    70  39  32 SE6       30.14F
GRANITE FALLS  MOCLDY    71  33  24 E6        30.15S
CANBY          CLOUDY    71  35  26 SE5       30.14S
MARSHALL       MOCLDY    72  36  26 SE7       30.13S
REDWOOD FALLS  CLOUDY    72  32  23 E7        30.14F
OLIVIA         MOCLDY    68  32  26 SE3       30.15S
PIPESTONE      CLOUDY    66  37  34 SW7       30.15S
WINDOM         CLOUDY    70  30  23 CALM      30.16S
WORTHINGTON    CLOUDY    70  32  24 S7        30.16S
JACKSON        CLOUDY    70  36  28 SE5       30.17S
TRACY          CLOUDY    72  34  25 SE7       30.14S
SLAYTON        CLOUDY    69  33  26 CALM      30.16R
$$
MNZ065>067-074>077-082>085-091>093-230200-
   South Central Minnesota

CITY           SKY/WX    TMP DP  RH WIND       PRES   REMARKS
MANKATO        CLOUDY    70  36  28 NE5       30.17S
NEW ULM        CLOUDY    70  32  24 E5        30.16S
ST JAMES       CLOUDY    72  36  26 SE5       30.16F
FAIRMONT       CLOUDY    70  34  26 SE7       30.16S
GLENCOE        MOCLDY    69  40  35 NE6       30.17S
FARIBAULT      CLOUDY    70  37  30 CALM      30.19S
OWATONNA       CLOUDY    70  34  26 CALM      30.18S
WASECA         CLOUDY    66  37  34 NE6       30.18S
ALBERT LEA     CLOUDY    68  37  32 CALM      30.18S
$$
MNZ078>079-086>088-094>096-230200-
   Southeast Minnesota

CITY           SKY/WX    TMP DP  RH WIND       PRES   REMARKS
ROCHESTER      CLOUDY    66  38  35 E6        30.20S
RED WING       MOCLDY    66  43  42 CALM      30.18S
STANTON        MOCLDY    70  33  25 CALM      30.18R
DODGE CENTER   CLOUDY    70  32  24 E6        30.19S
WINONA         CLOUDY    68  43  40 CALM      30.20R
AUSTIN         CLOUDY    66  46  48 CALM      30.18S
PRESTON        CLOUDY    65  35  32 E5        30.20S
$$
ABBREVIATIONS USED IN REMARKS
   TC - TEMPERATURES IN CELSIUS
  WCI - WIND CHILL INDEX
   HX - HEAT INDEX
  VSB - VISIBILITY
$$


USA.gov is the U.S. government's official web portal to all federal, state and local government web resources and services.